Home > Weather > Bergkamen > Past weeks

Flag for Germany Weather for the Past 2 Weeks in Bergkamen, North Rhine-Westphalia, Germany

Now
36 °F

Fog.


Feels Like: 36 °F
Forecast: 30 / 37 °F
Wind: 2 mph from North

Location: Dortmund / Wickede

Current Time: Feb 14, 2016 at 10:12:12 AM

Latest Report: Feb 14, 2016 at 9:20 AM


Visibility: 0 mi

Pressure: 29.09 "Hg

Humidity: 93%

Dew point: 34 °F

Location of BergkamenLocation

Historic Weather in Bergkamen — Graph

°F

Bergkamen Temperature Yesterday

Maximum temperature yesterday: 41 °F (at 1:50 PM)
Minimum temperature yesterday: 27 °F (at 5:50 AM)
Average temperature yesterday: 35 °F

High & Low Weather Summary for the Past Weeks

 TemperatureHumidityPressure
High52 °F (Feb 1, 5:20 AM)94% (Feb 1, 7:20 AM)30.27 "Hg (Feb 1, 7:20 AM)
Low27 °F (Feb 13, 5:50 AM)53% (Feb 3, 3:20 PM)28.82 "Hg (Feb 9, 3:50 PM)
Average42 °F77%29.67 "Hg
* Reported Jan 30 8:20 AM — Feb 14 8:20 AM, Bergkamen, Weather by CustomWeather, © 2016

Note: Actual official high and low records may vary slightly from our data, if they occured in-between our weather recording intervals... More about our weather records

Advertising

Bergkamen Weather History for the Previous 24 Hours

 ConditionsComfort  
Time TempWeatherWind HumidityBarometerVisibility
8:20 AM
Sun, Feb 14
36 °FFog.3 mph93%29.06 "Hg1 mi
7:50 AM36 °FFog.3 mph93%29.06 "Hg1 mi
7:20 AM36 °FFog.5 mph93%29.06 "Hg1 mi
6:50 AM36 °FFog.5 mph93%29.03 "Hg1 mi
6:20 AM36 °FFog.3 mph93%29.03 "Hg1 mi
5:50 AM36 °FFog.3 mph87%29.03 "Hg2 mi
5:20 AM36 °FFog.6 mph93%29.03 "Hg2 mi
10:50 PM
Sat, Feb 13
36 °FPassing clouds.12 mph87%29.03 "HgN/A
10:20 PM36 °FPassing clouds.13 mph87%29.06 "HgN/A
9:50 PM36 °FPassing clouds.12 mph87%29.06 "HgN/A
9:20 PM36 °FPassing clouds.10 mph87%29.06 "HgN/A
8:50 PM36 °FPassing clouds.9 mph87%29.09 "Hg6 mi
8:20 PM36 °FLight rain. Passing clouds.10 mph87%29.09 "HgN/A
7:50 PM36 °FPassing clouds.9 mph87%29.09 "HgN/A
7:20 PM36 °FSprinkles. Passing clouds.9 mph87%29.09 "HgN/A
6:50 PM36 °FLight rain. Passing clouds.10 mph87%29.12 "Hg5 mi
6:20 PM36 °FPassing clouds.9 mph87%29.12 "HgN/A
5:50 PM37 °FPassing clouds.12 mph81%29.12 "Hg6 mi
5:20 PM37 °FPartly sunny.9 mph81%29.12 "Hg6 mi
4:50 PM37 °FPartly sunny.12 mph75%29.15 "HgN/A
4:20 PM39 °FBroken clouds.8 mph65%29.15 "HgN/A
3:50 PM41 °FPartly sunny.12 mph61%29.15 "HgN/A
3:20 PM41 °FPartly sunny.10 mph61%29.15 "HgN/A
2:50 PM41 °FPartly sunny.9 mph61%29.18 "HgN/A
2:20 PM41 °FScattered clouds.7 mph61%29.18 "HgN/A
1:50 PM41 °FSunny.10 mph66%29.21 "Hg10 mi
1:20 PM39 °FPassing clouds.8 mph65%29.21 "HgN/A
12:50 PM39 °FSunny.10 mph70%29.24 "Hg10 mi
12:20 PM39 °FSunny.9 mph65%29.24 "Hg10 mi
11:50 AM39 °FSunny.8 mph65%29.27 "Hg10 mi
11:20 AM37 °FSunny.8 mph75%29.27 "Hg10 mi
10:50 AM34 °FPassing clouds.5 mph81%29.30 "HgN/A
10:20 AM32 °FSunny.5 mph80%29.30 "Hg10 mi
Weather by CustomWeather, © 2016

See weather overviewHow to use our weather pages